Time,TemperatureF,DewpointF,PressureIn,WindDirection,WindDirectionDegrees,WindSpeedMPH,WindSpeedGustMPH,Humidity,HourlyPrecipIn,Conditions,Clouds,dailyrainin,SoftwareType,DateUTC
2013-09-05 00:03:00,72.2,53.6,29.86,SSW,209,0.0,0.0,52,0.00,,---,0.00,VWS V14.00,2013-09-05 06:03:00,
2013-09-05 00:08:00,72.1,53.5,29.86,SSW,209,0.0,0.0,52,0.00,,---,0.00,VWS V14.00,2013-09-05 06:08:00,
2013-09-05 00:14:00,71.9,53.9,29.87,SSW,209,0.0,0.0,53,0.00,,---,0.00,VWS V14.00,2013-09-05 06:14:00,
2013-09-05 00:19:00,71.6,54.1,29.87,SSW,209,0.0,0.0,54,0.00,,---,0.00,VWS V14.00,2013-09-05 06:19:00,
2013-09-05 00:24:00,71.3,53.8,29.87,SSW,209,0.0,0.0,54,0.00,,---,0.00,VWS V14.00,2013-09-05 06:24:00,
2013-09-05 00:29:00,71.1,54.1,29.87,SSW,209,0.0,0.0,55,0.00,,---,0.00,VWS V14.00,2013-09-05 06:29:00,
2013-09-05 00:34:00,70.9,54.0,29.88,SSW,209,0.0,0.0,55,0.00,,---,0.00,VWS V14.00,2013-09-05 06:34:00,
2013-09-05 00:39:00,70.6,54.2,29.88,SSW,209,0.0,0.0,56,0.00,,---,0.00,VWS V14.00,2013-09-05 06:39:00,
2013-09-05 00:44:00,70.3,54.4,29.89,SSW,209,0.0,0.0,57,0.00,,---,0.00,VWS V14.00,2013-09-05 06:44:00,
2013-09-05 00:50:00,69.5,54.1,29.89,SSW,209,0.0,0.0,58,0.00,,---,0.00,VWS V14.00,2013-09-05 06:50:00,
2013-09-05 00:55:00,69.2,54.3,29.89,SSW,209,0.0,0.0,59,0.00,,---,0.00,VWS V14.00,2013-09-05 06:55:00,
2013-09-05 01:00:00,69.0,54.1,29.89,SSW,209,0.0,0.0,59,0.00,,---,0.00,VWS V14.00,2013-09-05 07:00:00,
2013-09-05 01:05:00,68.8,53.9,29.88,SSW,209,0.0,0.0,59,0.00,,---,0.00,VWS V14.00,2013-09-05 07:05:00,
2013-09-05 01:10:00,68.6,53.7,29.88,SSW,209,0.0,0.0,59,0.00,,---,0.00,VWS V14.00,2013-09-05 07:10:00,
2013-09-05 01:15:00,68.5,53.6,29.88,SSW,209,0.0,0.0,59,0.00,,---,0.00,VWS V14.00,2013-09-05 07:15:00,
2013-09-05 01:20:00,68.2,54.2,29.88,SSW,209,0.0,0.0,61,0.00,,---,0.00,VWS V14.00,2013-09-05 07:20:00,
2013-09-05 01:25:00,68.0,54.1,29.88,SSW,209,0.0,0.0,61,0.00,,---,0.00,VWS V14.00,2013-09-05 07:25:00,
2013-09-05 01:30:00,67.9,54.0,29.88,SSW,209,0.0,0.0,61,0.00,,---,0.00,VWS V14.00,2013-09-05 07:30:00,
2013-09-05 01:35:00,67.8,53.9,29.88,SSW,209,0.0,0.0,61,0.00,,---,0.00,VWS V14.00,2013-09-05 07:35:00,
2013-09-05 01:40:00,67.6,54.1,29.88,SSW,209,0.0,0.0,62,0.00,,---,0.00,VWS V14.00,2013-09-05 07:40:00,
2013-09-05 01:45:00,67.5,54.0,29.88,SSW,209,0.0,0.0,62,0.00,,---,0.00,VWS V14.00,2013-09-05 07:45:00,
2013-09-05 01:50:00,67.3,53.8,29.89,SSW,209,0.0,0.0,62,0.00,,---,0.00,VWS V14.00,2013-09-05 07:50:00,
2013-09-05 01:55:00,67.2,53.8,29.89,SSW,209,0.0,0.0,62,0.00,,---,0.00,VWS V14.00,2013-09-05 07:55:00,
2013-09-05 02:00:00,67.1,54.1,29.89,SSW,209,0.0,0.0,63,0.00,,---,0.00,VWS V14.00,2013-09-05 08:00:00,
2013-09-05 02:06:00,66.9,54.3,29.90,SSW,209,0.0,0.0,64,0.00,,---,0.00,VWS V14.00,2013-09-05 08:06:00,
2013-09-05 02:11:00,66.8,54.2,29.90,SSW,209,0.0,0.0,64,0.00,,---,0.00,VWS V14.00,2013-09-05 08:11:00,
2013-09-05 02:16:00,66.7,54.2,29.90,SSW,209,0.0,0.0,64,0.00,,---,0.00,VWS V14.00,2013-09-05 08:16:00,
2013-09-05 02:21:00,66.6,54.5,29.90,SSW,209,0.0,0.0,65,0.00,,---,0.00,VWS V14.00,2013-09-05 08:21:00,
2013-09-05 02:26:00,66.5,54.0,29.90,SSW,209,0.0,0.0,64,0.00,,---,0.00,VWS V14.00,2013-09-05 08:26:00,
2013-09-05 02:31:00,66.4,54.3,29.91,SSW,209,0.0,0.0,65,0.00,,---,0.00,VWS V14.00,2013-09-05 08:31:00,
2013-09-05 02:36:00,66.2,54.5,29.91,SSW,209,0.0,0.0,66,0.00,,---,0.00,VWS V14.00,2013-09-05 08:36:00,
2013-09-05 02:41:00,66.1,54.4,29.91,SSW,209,0.0,0.0,66,0.00,,---,0.00,VWS V14.00,2013-09-05 08:41:00,
2013-09-05 02:46:00,66.0,54.3,29.91,SSW,209,0.0,0.0,66,0.00,,---,0.00,VWS V14.00,2013-09-05 08:46:00,
2013-09-05 02:51:00,66.0,54.7,29.91,SSW,209,0.0,0.0,67,0.00,,---,0.00,VWS V14.00,2013-09-05 08:51:00,
2013-09-05 02:56:00,65.9,54.7,29.91,SSW,209,0.0,0.0,67,0.00,,---,0.00,VWS V14.00,2013-09-05 08:56:00,
2013-09-05 03:01:00,65.8,54.5,29.91,SSW,209,0.0,0.0,67,0.00,,---,0.00,VWS V14.00,2013-09-05 09:01:00,
2013-09-05 03:06:00,65.8,54.5,29.91,SSW,209,0.0,0.0,67,0.00,,---,0.00,VWS V14.00,2013-09-05 09:06:00,
2013-09-05 03:11:00,65.7,54.5,29.91,SSW,209,0.0,0.0,67,0.00,,---,0.00,VWS V14.00,2013-09-05 09:11:00,
2013-09-05 03:16:00,65.6,54.4,29.91,SSW,209,0.0,0.0,67,0.00,,---,0.00,VWS V14.00,2013-09-05 09:16:00,
2013-09-05 03:21:00,65.5,54.3,29.91,SSW,209,0.0,0.0,67,0.00,,---,0.00,VWS V14.00,2013-09-05 09:21:00,
2013-09-05 03:26:00,65.5,54.3,29.91,SSW,209,0.0,0.0,67,0.00,,---,0.00,VWS V14.00,2013-09-05 09:26:00,
2013-09-05 03:31:00,65.5,53.8,29.92,SSW,209,0.0,0.0,66,0.00,,---,0.00,VWS V14.00,2013-09-05 09:31:00,
2013-09-05 03:36:00,65.5,54.3,29.92,SSW,209,0.0,1.0,67,0.00,,---,0.00,VWS V14.00,2013-09-05 09:36:00,
2013-09-05 03:41:00,65.6,54.0,29.91,SSW,209,0.0,0.0,66,0.00,,---,0.00,VWS V14.00,2013-09-05 09:41:00,
2013-09-05 03:46:00,65.6,54.0,29.91,SSW,209,0.0,0.0,66,0.00,,---,0.00,VWS V14.00,2013-09-05 09:46:00,
2013-09-05 03:51:00,65.6,54.0,29.91,SSW,209,0.0,0.0,66,0.00,,---,0.00,VWS V14.00,2013-09-05 09:51:00,
2013-09-05 03:56:00,65.7,54.0,29.91,SSW,209,0.0,1.0,66,0.00,,---,0.00,VWS V14.00,2013-09-05 09:56:00,
2013-09-05 04:01:00,65.8,54.1,29.92,SSW,210,0.0,0.0,66,0.00,,---,0.00,VWS V14.00,2013-09-05 10:01:00,
2013-09-05 04:06:00,65.8,54.1,29.92,SSW,209,2.0,3.0,66,0.00,,---,0.00,VWS V14.00,2013-09-05 10:06:00,
2013-09-05 04:11:00,65.9,53.8,29.92,South,183,0.0,1.0,65,0.00,,---,0.00,VWS V14.00,2013-09-05 10:11:00,
2013-09-05 04:16:00,66.0,53.5,29.92,South,183,0.0,1.0,64,0.00,,---,0.00,VWS V14.00,2013-09-05 10:16:00,
2013-09-05 04:21:00,66.0,53.5,29.92,South,183,0.0,0.0,64,0.00,,---,0.00,VWS V14.00,2013-09-05 10:21:00,
2013-09-05 04:26:00,66.0,53.5,29.92,South,183,0.0,0.0,64,0.00,,---,0.00,VWS V14.00,2013-09-05 10:26:00,
2013-09-05 04:31:00,65.9,53.0,29.92,South,183,0.0,0.0,63,0.00,,---,0.00,VWS V14.00,2013-09-05 10:31:00,
2013-09-05 04:36:00,65.9,53.0,29.92,South,183,0.0,0.0,63,0.00,,---,0.00,VWS V14.00,2013-09-05 10:36:00,
2013-09-05 04:41:00,65.8,53.3,29.92,South,183,0.0,0.0,64,0.00,,---,0.00,VWS V14.00,2013-09-05 10:41:00,
2013-09-05 04:46:00,65.7,53.6,29.92,South,183,0.0,0.0,65,0.00,,---,0.00,VWS V14.00,2013-09-05 10:46:00,
2013-09-05 04:51:00,65.5,53.0,29.92,South,183,0.0,0.0,64,0.00,,---,0.00,VWS V14.00,2013-09-05 10:51:00,
2013-09-05 04:56:00,65.4,52.9,29.92,South,183,0.0,0.0,64,0.00,,---,0.00,VWS V14.00,2013-09-05 10:56:00,
2013-09-05 05:01:00,65.3,53.2,29.94,South,183,0.0,0.0,65,0.00,,---,0.00,VWS V14.00,2013-09-05 11:01:00,
2013-09-05 05:06:00,65.2,53.2,29.94,South,183,0.0,0.0,65,0.00,,---,0.00,VWS V14.00,2013-09-05 11:06:00,
2013-09-05 05:11:00,65.0,53.0,29.94,South,183,0.0,0.0,65,0.00,,---,0.00,VWS V14.00,2013-09-05 11:11:00,
2013-09-05 05:16:00,64.9,52.9,29.95,South,183,0.0,0.0,65,0.00,,---,0.00,VWS V14.00,2013-09-05 11:16:00,
2013-09-05 05:21:00,64.8,53.2,29.95,South,183,0.0,0.0,66,0.00,,---,0.00,VWS V14.00,2013-09-05 11:21:00,
2013-09-05 05:26:00,64.8,53.6,29.95,South,183,0.0,0.0,67,0.00,,---,0.00,VWS V14.00,2013-09-05 11:26:00,
2013-09-05 05:31:00,64.8,53.6,29.95,South,183,0.0,0.0,67,0.00,,---,0.00,VWS V14.00,2013-09-05 11:31:00,
2013-09-05 05:36:00,64.7,53.5,29.95,South,183,0.0,0.0,67,0.00,,---,0.00,VWS V14.00,2013-09-05 11:36:00,
2013-09-05 05:41:00,64.6,53.4,29.95,South,183,0.0,0.0,67,0.00,,---,0.00,VWS V14.00,2013-09-05 11:41:00,
2013-09-05 05:46:00,64.5,53.7,29.95,South,183,0.0,0.0,68,0.00,,---,0.00,VWS V14.00,2013-09-05 11:46:00,
2013-09-05 05:51:00,64.4,54.0,29.96,South,183,0.0,0.0,69,0.00,,---,0.00,VWS V14.00,2013-09-05 11:51:00,
2013-09-05 05:56:00,64.3,54.3,29.97,South,183,0.0,0.0,70,0.00,,---,0.00,VWS V14.00,2013-09-05 11:56:00,
2013-09-05 06:01:00,64.2,54.2,29.97,South,183,0.0,0.0,70,0.00,,---,0.00,VWS V14.00,2013-09-05 12:01:00,
2013-09-05 06:06:00,64.1,54.1,29.98,South,183,0.0,0.0,70,0.00,,---,0.00,VWS V14.00,2013-09-05 12:06:00,
2013-09-05 06:11:00,64.1,54.5,29.98,South,183,0.0,0.0,71,0.00,,---,0.00,VWS V14.00,2013-09-05 12:11:00,
2013-09-05 06:16:00,64.0,54.4,29.98,South,183,0.0,0.0,71,0.00,,---,0.00,VWS V14.00,2013-09-05 12:16:00,
2013-09-05 06:21:00,63.9,54.3,29.98,South,183,0.0,0.0,71,0.00,,---,0.00,VWS V14.00,2013-09-05 12:21:00,
2013-09-05 06:26:00,63.8,54.2,29.98,South,183,0.0,0.0,71,0.00,,---,0.00,VWS V14.00,2013-09-05 12:26:00,
2013-09-05 06:31:00,63.8,55.0,29.98,South,183,0.0,0.0,73,0.00,,---,0.00,VWS V14.00,2013-09-05 12:31:00,
2013-09-05 06:36:00,63.8,55.0,29.98,South,183,0.0,0.0,73,0.00,,---,0.00,VWS V14.00,2013-09-05 12:36:00,
2013-09-05 06:41:00,63.8,55.4,29.99,South,183,0.0,0.0,74,0.00,,---,0.00,VWS V14.00,2013-09-05 12:41:00,
2013-09-05 06:46:00,63.7,55.3,29.98,South,183,0.0,0.0,74,0.00,,---,0.00,VWS V14.00,2013-09-05 12:46:00,
2013-09-05 06:52:00,63.7,55.3,29.99,South,183,0.0,0.0,74,0.00,,---,0.00,VWS V14.00,2013-09-05 12:52:00,
2013-09-05 06:57:00,63.6,55.5,29.98,South,183,0.0,0.0,75,0.00,,---,0.00,VWS V14.00,2013-09-05 12:57:00,
2013-09-05 07:02:00,63.7,55.6,29.98,South,183,0.0,0.0,75,0.00,,---,0.00,VWS V14.00,2013-09-05 13:02:00,
2013-09-05 07:07:00,63.6,55.5,29.98,South,183,0.0,0.0,75,0.00,,---,0.00,VWS V14.00,2013-09-05 13:07:00,
2013-09-05 07:12:00,63.7,56.0,29.98,South,183,0.0,0.0,76,0.00,,---,0.00,VWS V14.00,2013-09-05 13:12:00,
2013-09-05 07:17:00,63.8,56.1,29.98,South,183,0.0,0.0,76,0.00,,---,0.00,VWS V14.00,2013-09-05 13:17:00,
2013-09-05 07:22:00,63.9,56.2,29.98,South,183,0.0,0.0,76,0.00,,---,0.00,VWS V14.00,2013-09-05 13:22:00,
2013-09-05 07:27:00,63.8,56.1,29.98,South,183,0.0,0.0,76,0.00,,---,0.00,VWS V14.00,2013-09-05 13:27:00,
2013-09-05 07:32:00,63.8,56.1,29.98,South,183,0.0,0.0,76,0.00,,---,0.00,VWS V14.00,2013-09-05 13:32:00,
2013-09-05 07:37:00,63.8,55.7,29.98,South,183,0.0,0.0,75,0.00,,---,0.00,VWS V14.00,2013-09-05 13:37:00,
2013-09-05 07:42:00,63.8,55.7,29.98,South,183,0.0,0.0,75,0.00,,---,0.00,VWS V14.00,2013-09-05 13:42:00,
2013-09-05 07:47:00,64.0,56.3,29.98,South,183,0.0,0.0,76,0.00,,---,0.00,VWS V14.00,2013-09-05 13:47:00,
2013-09-05 07:52:00,64.3,56.2,29.98,South,183,0.0,0.0,75,0.00,,---,0.00,VWS V14.00,2013-09-05 13:52:00,
2013-09-05 07:58:00,64.4,56.3,29.98,South,183,0.0,0.0,75,0.00,,---,0.00,VWS V14.00,2013-09-05 13:58:00,
2013-09-05 08:03:00,64.5,56.4,29.98,South,183,0.0,0.0,75,0.00,,---,0.00,VWS V14.00,2013-09-05 14:03:00,
2013-09-05 08:09:00,64.5,56.0,29.98,South,183,0.0,1.0,74,0.00,,---,0.00,VWS V14.00,2013-09-05 14:09:00,
2013-09-05 08:14:00,64.8,55.6,29.98,South,183,0.0,0.0,72,0.00,,---,0.00,VWS V14.00,2013-09-05 14:14:00,
2013-09-05 08:20:00,65.4,55.4,29.99,South,184,0.0,0.0,70,0.00,,---,0.00,VWS V14.00,2013-09-05 14:20:00,
2013-09-05 08:26:00,65.7,54.9,29.98,South,184,0.0,0.0,68,0.00,,---,0.00,VWS V14.00,2013-09-05 14:26:00,
2013-09-05 08:31:00,66.0,55.5,29.99,South,184,0.0,0.0,69,0.00,,---,0.00,VWS V14.00,2013-09-05 14:31:00,
2013-09-05 08:36:00,66.3,55.0,29.98,South,184,0.0,0.0,67,0.00,,---,0.00,VWS V14.00,2013-09-05 14:36:00,
2013-09-05 08:42:00,66.5,55.6,29.98,South,184,0.0,0.0,68,0.00,,---,0.00,VWS V14.00,2013-09-05 14:42:00,
2013-09-05 08:48:00,66.7,55.8,29.97,South,184,0.0,0.0,68,0.00,,---,0.00,VWS V14.00,2013-09-05 14:48:00,
2013-09-05 08:54:00,66.8,55.9,29.97,South,184,0.0,0.0,68,0.00,,---,0.00,VWS V14.00,2013-09-05 14:54:00,
2013-09-05 08:59:00,67.0,56.5,29.97,South,184,0.0,0.0,69,0.00,,---,0.00,VWS V14.00,2013-09-05 14:59:00,
2013-09-05 09:05:00,67.4,57.3,29.97,South,184,0.0,0.0,70,0.00,,---,0.00,VWS V14.00,2013-09-05 15:05:00,
2013-09-05 09:10:00,68.0,57.5,29.96,South,184,0.0,0.0,69,0.00,,---,0.00,VWS V14.00,2013-09-05 15:10:00,
2013-09-05 09:15:00,68.6,58.0,29.96,South,184,0.0,0.0,69,0.00,,---,0.00,VWS V14.00,2013-09-05 15:15:00,
2013-09-05 09:21:00,69.1,58.5,29.97,South,184,0.0,0.0,69,0.00,,---,0.00,VWS V14.00,2013-09-05 15:21:00,
2013-09-05 09:26:00,69.2,57.0,29.96,South,184,0.0,0.0,65,0.00,,---,0.00,VWS V14.00,2013-09-05 15:26:00,
2013-09-05 09:31:00,69.4,57.6,29.96,South,184,0.0,0.0,66,0.00,,---,0.00,VWS V14.00,2013-09-05 15:31:00,
2013-09-05 09:37:00,69.8,58.4,29.95,South,182,0.0,1.0,67,0.00,,---,0.00,VWS V14.00,2013-09-05 15:37:00,
2013-09-05 09:42:00,69.8,57.1,29.95,South,182,0.0,1.0,64,0.00,,---,0.00,VWS V14.00,2013-09-05 15:42:00,
2013-09-05 09:47:00,69.9,57.2,29.95,South,182,0.0,0.0,64,0.00,,---,0.00,VWS V14.00,2013-09-05 15:47:00,
2013-09-05 09:52:00,70.1,56.9,29.95,South,179,0.0,2.0,63,0.00,,---,0.00,VWS V14.00,2013-09-05 15:52:00,
2013-09-05 09:57:00,70.3,56.2,29.96,SE,126,0.0,1.0,61,0.00,,---,0.00,VWS V14.00,2013-09-05 15:57:00,
2013-09-05 10:02:00,70.6,56.5,29.96,SE,126,0.0,0.0,61,0.00,,---,0.00,VWS V14.00,2013-09-05 16:02:00,
2013-09-05 10:07:00,70.6,56.5,29.96,SE,126,1.0,1.0,61,0.00,,---,0.00,VWS V14.00,2013-09-05 16:07:00,
2013-09-05 10:12:00,71.0,56.0,29.97,SE,126,0.0,0.0,59,0.00,,---,0.00,VWS V14.00,2013-09-05 16:12:00,
2013-09-05 10:17:00,71.0,56.9,29.96,SE,126,0.0,0.0,61,0.00,,---,0.00,VWS V14.00,2013-09-05 16:17:00,
2013-09-05 10:22:00,70.6,56.5,29.96,SE,126,0.0,0.0,61,0.00,,---,0.00,VWS V14.00,2013-09-05 16:22:00,
2013-09-05 10:27:00,71.2,57.1,29.96,SE,126,0.0,0.0,61,0.00,,---,0.00,VWS V14.00,2013-09-05 16:27:00,
2013-09-05 10:32:00,71.7,56.6,29.95,SE,126,0.0,0.0,59,0.00,,---,0.00,VWS V14.00,2013-09-05 16:32:00,
2013-09-05 10:37:00,71.8,57.6,29.95,SE,126,0.0,0.0,61,0.00,,---,0.00,VWS V14.00,2013-09-05 16:37:00,
2013-09-05 10:42:00,72.2,56.1,29.94,SE,126,0.0,1.0,57,0.00,,---,0.00,VWS V14.00,2013-09-05 16:42:00,
2013-09-05 10:47:00,72.9,56.3,29.95,SE,126,0.0,1.0,56,0.00,,---,0.00,VWS V14.00,2013-09-05 16:47:00,
2013-09-05 10:52:00,74.3,56.6,29.93,SE,126,0.0,0.0,54,0.00,,---,0.00,VWS V14.00,2013-09-05 16:52:00,
2013-09-05 10:57:00,74.6,57.4,29.93,SE,126,0.0,0.0,55,0.00,,---,0.00,VWS V14.00,2013-09-05 16:57:00,
2013-09-05 11:02:00,75.1,56.8,29.94,SE,126,1.0,1.0,53,0.00,,---,0.00,VWS V14.00,2013-09-05 17:02:00,
2013-09-05 11:08:00,76.2,56.8,29.92,SE,130,0.0,3.0,51,0.00,,---,0.00,VWS V14.00,2013-09-05 17:08:00,
2013-09-05 11:13:00,76.5,57.0,29.92,SE,130,0.0,1.0,51,0.00,,---,0.00,VWS V14.00,2013-09-05 17:13:00,
2013-09-05 11:18:00,77.6,58.1,29.91,SE,136,0.0,1.0,51,0.00,,---,0.00,VWS V14.00,2013-09-05 17:18:00,
2013-09-05 11:23:00,78.0,56.2,29.91,SSE,164,2.0,4.0,47,0.00,,---,0.00,VWS V14.00,2013-09-05 17:23:00,
2013-09-05 11:28:00,78.4,57.1,29.91,SSE,164,0.0,0.0,48,0.00,,---,0.00,VWS V14.00,2013-09-05 17:28:00,
2013-09-05 11:33:00,78.8,56.3,29.91,SSE,164,0.0,1.0,46,0.00,,---,0.00,VWS V14.00,2013-09-05 17:33:00,
2013-09-05 11:38:00,79.3,55.5,29.92,SSE,164,0.0,2.0,44,0.00,,---,0.00,VWS V14.00,2013-09-05 17:38:00,
2013-09-05 11:43:00,79.4,56.8,29.91,SSE,164,0.0,0.0,46,0.00,,---,0.00,VWS V14.00,2013-09-05 17:43:00,
2013-09-05 11:48:00,79.3,56.1,29.90,SSE,165,0.0,0.0,45,0.00,,---,0.00,VWS V14.00,2013-09-05 17:48:00,
2013-09-05 11:53:00,80.3,57.7,29.89,SSE,165,0.0,0.0,46,0.00,,---,0.00,VWS V14.00,2013-09-05 17:53:00,
2013-09-05 11:58:00,79.7,58.9,29.89,SSE,164,0.0,0.0,49,0.00,,---,0.00,VWS V14.00,2013-09-05 17:58:00,
2013-09-05 12:03:00,80.0,56.8,29.91,SSE,165,0.0,0.0,45,0.00,,---,0.00,VWS V14.00,2013-09-05 18:03:00,
2013-09-05 12:08:00,80.3,58.2,29.91,SSE,165,0.0,0.0,47,0.00,,---,0.00,VWS V14.00,2013-09-05 18:08:00,
2013-09-05 12:13:00,80.5,56.6,29.91,SSE,165,0.0,0.0,44,0.00,,---,0.00,VWS V14.00,2013-09-05 18:13:00,
2013-09-05 12:18:00,81.4,56.8,29.89,SSE,164,0.0,0.0,43,0.00,,---,0.00,VWS V14.00,2013-09-05 18:18:00,
2013-09-05 12:23:00,82.2,56.8,29.89,ENE,68,0.0,1.0,42,0.00,,---,0.00,VWS V14.00,2013-09-05 18:23:00,
2013-09-05 12:28:00,82.5,57.1,29.89,ENE,68,0.0,1.0,42,0.00,,---,0.00,VWS V14.00,2013-09-05 18:28:00,
2013-09-05 12:34:00,83.0,58.2,29.88,NE,53,2.0,4.0,43,0.00,,---,0.00,VWS V14.00,2013-09-05 18:34:00,
2013-09-05 12:39:00,83.4,59.8,29.87,NE,53,1.0,1.0,45,0.00,,---,0.00,VWS V14.00,2013-09-05 18:39:00,
2013-09-05 12:44:00,83.6,57.4,29.87,NE,53,0.0,1.0,41,0.00,,---,0.00,VWS V14.00,2013-09-05 18:44:00,
2013-09-05 12:49:00,84.6,59.0,29.87,NE,50,1.0,1.0,42,0.00,,---,0.00,VWS V14.00,2013-09-05 18:49:00,
2013-09-05 12:54:00,85.2,58.2,29.85,NE,51,0.0,1.0,40,0.00,,---,0.00,VWS V14.00,2013-09-05 18:54:00,
2013-09-05 12:59:00,85.7,59.3,29.86,NE,51,0.0,2.0,41,0.00,,---,0.00,VWS V14.00,2013-09-05 18:59:00,
2013-09-05 13:04:00,86.0,57.5,29.86,NE,52,0.0,1.0,38,0.00,,---,0.00,VWS V14.00,2013-09-05 19:04:00,
2013-09-05 13:09:00,86.6,61.5,29.84,NE,49,0.0,0.0,43,0.00,,---,0.00,VWS V14.00,2013-09-05 19:09:00,
2013-09-05 13:14:00,87.2,62.7,29.84,East,92,0.0,0.0,44,0.00,,---,0.00,VWS V14.00,2013-09-05 19:14:00,
2013-09-05 13:19:00,87.6,58.9,29.84,NNW,348,0.0,2.0,38,0.00,,---,0.00,VWS V14.00,2013-09-05 19:19:00,
2013-09-05 13:24:00,88.0,57.7,29.84,ENE,61,0.0,3.0,36,0.00,,---,0.00,VWS V14.00,2013-09-05 19:24:00,
2013-09-05 13:29:00,88.6,57.5,29.84,NNW,340,0.0,0.0,35,0.00,,---,0.00,VWS V14.00,2013-09-05 19:29:00,
2013-09-05 13:34:00,89.2,61.8,29.82,North,360,0.0,0.0,40,0.00,,---,0.00,VWS V14.00,2013-09-05 19:34:00,
2013-09-05 13:39:00,89.5,60.6,29.83,NNE,14,0.0,0.0,38,0.00,,---,0.00,VWS V14.00,2013-09-05 19:39:00,
2013-09-05 13:44:00,89.7,55.1,29.83,East,94,0.0,1.0,31,0.00,,---,0.00,VWS V14.00,2013-09-05 19:44:00,
2013-09-05 13:49:00,90.4,56.6,29.82,North,5,2.0,4.0,32,0.00,,---,0.00,VWS V14.00,2013-09-05 19:49:00,
2013-09-05 13:54:00,90.6,58.4,29.81,NNE,32,0.0,0.0,34,0.00,,---,0.00,VWS V14.00,2013-09-05 19:54:00,
2013-09-05 13:59:00,90.6,55.8,29.83,NW,315,0.0,6.0,31,0.00,,---,0.00,VWS V14.00,2013-09-05 19:59:00,
2013-09-05 14:04:00,91.4,55.6,29.82,NNW,327,2.0,5.0,30,0.00,,---,0.00,VWS V14.00,2013-09-05 20:04:00,
2013-09-05 14:09:00,91.8,56.0,29.81,NNE,15,0.0,4.0,30,0.00,,---,0.00,VWS V14.00,2013-09-05 20:09:00,
2013-09-05 14:14:00,91.5,54.8,29.81,North,360,0.0,4.0,29,0.00,,---,0.00,VWS V14.00,2013-09-05 20:14:00,
2013-09-05 14:19:00,90.2,53.7,29.82,ENE,63,0.0,1.0,29,0.00,,---,0.00,VWS V14.00,2013-09-05 20:19:00,
2013-09-05 14:24:00,90.6,55.0,29.82,ENE,63,0.0,1.0,30,0.00,,---,0.00,VWS V14.00,2013-09-05 20:24:00,
2013-09-05 14:29:00,90.8,54.2,29.82,NNW,338,4.0,5.0,29,0.00,,---,0.00,VWS V14.00,2013-09-05 20:29:00,
2013-09-05 14:34:00,90.0,55.3,29.82,NE,42,0.0,3.0,31,0.00,,---,0.00,VWS V14.00,2013-09-05 20:34:00,
2013-09-05 14:39:00,89.7,54.2,29.82,ENE,67,1.0,4.0,30,0.00,,---,0.00,VWS V14.00,2013-09-05 20:39:00,
2013-09-05 14:44:00,89.2,56.4,29.82,NW,306,0.0,2.0,33,0.00,,---,0.00,VWS V14.00,2013-09-05 20:44:00,
2013-09-05 14:49:00,89.0,54.5,29.82,NW,309,0.0,0.0,31,0.00,,---,0.00,VWS V14.00,2013-09-05 20:49:00,
2013-09-05 14:54:00,89.0,55.3,29.82,ENE,57,0.0,0.0,32,0.00,,---,0.00,VWS V14.00,2013-09-05 20:54:00,
2013-09-05 14:59:00,88.7,55.9,29.82,ENE,57,0.0,0.0,33,0.00,,---,0.00,VWS V14.00,2013-09-05 20:59:00,
2013-09-05 15:04:00,88.5,54.9,29.81,NNW,332,1.0,5.0,32,0.00,,---,0.00,VWS V14.00,2013-09-05 21:04:00,
2013-09-05 15:09:00,90.8,56.9,29.80,NNW,331,0.0,0.0,32,0.00,,---,0.00,VWS V14.00,2013-09-05 21:09:00,
2013-09-05 15:14:00,92.0,56.2,29.79,NNW,332,0.0,1.0,30,0.00,,---,0.00,VWS V14.00,2013-09-05 21:14:00,
2013-09-05 15:19:00,92.5,56.6,29.78,NNW,340,2.0,2.0,30,0.00,,---,0.00,VWS V14.00,2013-09-05 21:19:00,
2013-09-05 15:24:00,92.4,54.6,29.79,NE,42,0.0,2.0,28,0.00,,---,0.00,VWS V14.00,2013-09-05 21:24:00,
2013-09-05 15:29:00,93.0,57.0,29.78,North,10,2.0,2.0,30,0.00,,---,0.00,VWS V14.00,2013-09-05 21:29:00,
2013-09-05 15:34:00,93.0,54.1,29.79,NE,51,0.0,1.0,27,0.00,,---,0.00,VWS V14.00,2013-09-05 21:34:00,
2013-09-05 15:39:00,92.8,52.9,29.79,NE,45,0.0,0.0,26,0.00,,---,0.00,VWS V14.00,2013-09-05 21:39:00,
2013-09-05 15:44:00,93.0,58.8,29.78,NE,45,0.0,0.0,32,0.00,,---,0.00,VWS V14.00,2013-09-05 21:44:00,
2013-09-05 15:49:00,93.5,57.5,29.77,NW,322,0.0,4.0,30,0.00,,---,0.00,VWS V14.00,2013-09-05 21:49:00,
2013-09-05 15:54:00,93.6,54.6,29.77,NNW,334,0.0,0.0,27,0.00,,---,0.00,VWS V14.00,2013-09-05 21:54:00,
2013-09-05 15:59:00,93.3,53.3,29.78,NNW,348,2.0,4.0,26,0.00,,---,0.00,VWS V14.00,2013-09-05 21:59:00,
2013-09-05 16:04:00,93.2,54.3,29.78,NNE,19,1.0,3.0,27,0.00,,---,0.00,VWS V14.00,2013-09-05 22:04:00,
2013-09-05 16:09:00,93.4,53.4,29.78,ESE,107,0.0,1.0,26,0.00,,---,0.00,VWS V14.00,2013-09-05 22:09:00,
2013-09-05 16:14:00,94.0,55.0,29.78,ESE,105,0.0,1.0,27,0.00,,---,0.00,VWS V14.00,2013-09-05 22:14:00,
2013-09-05 16:19:00,93.7,54.7,29.78,ESE,115,0.0,1.0,27,0.00,,---,0.00,VWS V14.00,2013-09-05 22:19:00,
2013-09-05 16:24:00,93.3,55.4,29.78,ESE,115,0.0,1.0,28,0.00,,---,0.00,VWS V14.00,2013-09-05 22:24:00,
2013-09-05 16:29:00,92.2,55.4,29.79,ESE,116,0.0,1.0,29,0.00,,---,0.00,VWS V14.00,2013-09-05 22:29:00,
2013-09-05 16:34:00,92.4,55.6,29.79,ESE,116,0.0,2.0,29,0.00,,---,0.00,VWS V14.00,2013-09-05 22:34:00,
2013-09-05 16:39:00,92.5,54.7,29.78,ESE,111,0.0,3.0,28,0.00,,---,0.00,VWS V14.00,2013-09-05 22:39:00,
2013-09-05 16:44:00,92.3,55.5,29.78,ESE,112,0.0,1.0,29,0.00,,---,0.00,VWS V14.00,2013-09-05 22:44:00,
2013-09-05 16:49:00,92.0,52.2,29.79,North,11,0.0,2.0,26,0.00,,---,0.00,VWS V14.00,2013-09-05 22:49:00,
2013-09-05 16:54:00,91.6,55.8,29.79,SE,126,1.0,2.0,30,0.00,,---,0.00,VWS V14.00,2013-09-05 22:54:00,
2013-09-05 16:59:00,90.3,54.7,29.79,ESE,106,2.0,4.0,30,0.00,,---,0.00,VWS V14.00,2013-09-05 22:59:00,
2013-09-05 17:04:00,90.0,54.4,29.80,ESE,119,0.0,2.0,30,0.00,,---,0.00,VWS V14.00,2013-09-05 23:04:00,
2013-09-05 17:09:00,90.1,54.5,29.80,ESE,106,1.0,2.0,30,0.00,,---,0.00,VWS V14.00,2013-09-05 23:09:00,
2013-09-05 17:14:00,89.3,52.9,29.81,ESE,115,1.0,1.0,29,0.00,,---,0.00,VWS V14.00,2013-09-05 23:14:00,
2013-09-05 17:19:00,88.9,52.6,29.81,SE,133,1.0,6.0,29,0.00,,---,0.00,VWS V14.00,2013-09-05 23:19:00,
2013-09-05 17:24:00,88.3,53.9,29.82,SE,130,0.0,6.0,31,0.00,,---,0.00,VWS V14.00,2013-09-05 23:24:00,
2013-09-05 17:29:00,87.3,53.9,29.83,ESE,102,0.0,0.0,32,0.00,,---,0.00,VWS V14.00,2013-09-05 23:29:00,
2013-09-05 17:34:00,86.5,54.0,29.82,ESE,102,0.0,0.0,33,0.00,,---,0.00,VWS V14.00,2013-09-05 23:34:00,
2013-09-05 17:39:00,86.0,54.4,29.83,ESE,102,0.0,0.0,34,0.00,,---,0.00,VWS V14.00,2013-09-05 23:39:00,
2013-09-05 17:44:00,85.5,54.8,29.83,ESE,102,0.0,0.0,35,0.00,,---,0.00,VWS V14.00,2013-09-05 23:44:00,
2013-09-05 17:49:00,85.4,55.4,29.84,ESE,102,0.0,0.0,36,0.00,,---,0.00,VWS V14.00,2013-09-05 23:49:00,
2013-09-05 17:54:00,84.9,56.5,29.84,ESE,102,0.0,0.0,38,0.00,,---,0.00,VWS V14.00,2013-09-05 23:54:00,
2013-09-05 18:00:00,84.7,54.0,29.84,ESE,102,0.0,0.0,35,0.00,,---,0.00,VWS V14.00,2013-09-06 00:00:00,
2013-09-05 18:05:00,84.4,55.3,29.84,ESE,102,0.0,0.0,37,0.00,,---,0.00,VWS V14.00,2013-09-06 00:05:00,
2013-09-05 18:11:00,84.3,53.7,29.84,ESE,102,0.0,0.0,35,0.00,,---,0.00,VWS V14.00,2013-09-06 00:11:00,
2013-09-05 18:16:00,84.3,52.9,29.83,ESE,102,0.0,0.0,34,0.00,,---,0.00,VWS V14.00,2013-09-06 00:16:00,
2013-09-05 18:21:00,84.4,53.8,29.84,ESE,102,0.0,0.0,35,0.00,,---,0.00,VWS V14.00,2013-09-06 00:21:00,
2013-09-05 18:26:00,84.5,54.6,29.84,ESE,102,0.0,0.0,36,0.00,,---,0.00,VWS V14.00,2013-09-06 00:26:00,
2013-09-05 18:32:00,84.4,53.0,29.84,ESE,102,0.0,0.0,34,0.00,,---,0.00,VWS V14.00,2013-09-06 00:32:00,
2013-09-05 18:37:00,84.3,53.7,29.85,ESE,102,0.0,1.0,35,0.00,,---,0.00,VWS V14.00,2013-09-06 00:37:00,
2013-09-05 18:43:00,84.4,52.2,29.85,NE,40,3.0,5.0,33,0.00,,---,0.00,VWS V14.00,2013-09-06 00:43:00,
2013-09-05 18:48:00,84.8,53.3,29.86,WNW,287,0.0,5.0,34,0.00,,---,0.00,VWS V14.00,2013-09-06 00:48:00,
2013-09-05 18:54:00,84.4,54.6,29.86,ENE,57,0.0,1.0,36,0.00,,---,0.00,VWS V14.00,2013-09-06 00:54:00,
2013-09-05 18:59:00,83.8,53.3,29.86,NNW,331,2.0,8.0,35,0.00,,---,0.00,VWS V14.00,2013-09-06 00:59:00,
2013-09-05 19:04:00,83.4,52.1,29.87,NW,316,0.0,0.0,34,0.00,,---,0.00,VWS V14.00,2013-09-06 01:04:00,
2013-09-05 19:09:00,83.2,51.1,29.88,ESE,122,0.0,1.0,33,0.00,,---,0.00,VWS V14.00,2013-09-06 01:09:00,
2013-09-05 19:14:00,83.2,51.9,29.88,ESE,113,0.0,0.0,34,0.00,,---,0.00,VWS V14.00,2013-09-06 01:14:00,
2013-09-05 19:19:00,83.0,52.6,29.87,North,351,0.0,3.0,35,0.00,,---,0.00,VWS V14.00,2013-09-06 01:19:00,
2013-09-05 19:24:00,82.9,50.9,29.88,West,276,0.0,2.0,33,0.00,,---,0.00,VWS V14.00,2013-09-06 01:24:00,
2013-09-05 19:29:00,82.9,52.5,29.87,NNW,340,7.0,7.0,35,0.00,,---,0.00,VWS V14.00,2013-09-06 01:29:00,
2013-09-05 19:35:00,82.7,55.2,29.87,NE,42,0.0,2.0,39,0.00,,---,0.00,VWS V14.00,2013-09-06 01:35:00,
2013-09-05 19:40:00,82.3,55.6,29.87,NE,43,0.0,0.0,40,0.00,,---,0.00,VWS V14.00,2013-09-06 01:40:00,
2013-09-05 19:45:00,81.9,55.9,29.87,NE,43,0.0,1.0,41,0.00,,---,0.01,VWS V14.00,2013-09-06 01:45:00,
2013-09-05 19:50:00,81.6,57.0,29.86,NE,42,0.0,0.0,43,0.00,,---,0.01,VWS V14.00,2013-09-06 01:50:00,
2013-09-05 19:55:00,81.1,54.5,29.88,ENE,78,0.0,4.0,40,0.00,,---,0.01,VWS V14.00,2013-09-06 01:55:00,
2013-09-05 20:01:00,80.6,56.1,29.89,ENE,78,0.0,0.0,43,0.00,,---,0.01,VWS V14.00,2013-09-06 02:01:00,
2013-09-05 20:06:00,80.1,54.3,29.87,ENE,78,0.0,0.0,41,0.00,,---,0.01,VWS V14.00,2013-09-06 02:06:00,
2013-09-05 20:11:00,79.8,52.7,29.87,West,281,2.0,2.0,39,0.00,,---,0.01,VWS V14.00,2013-09-06 02:11:00,
2013-09-05 20:17:00,79.9,55.4,29.87,West,281,0.0,0.0,43,0.00,,---,0.01,VWS V14.00,2013-09-06 02:17:00,
2013-09-05 20:22:00,79.9,55.4,29.88,WNW,282,0.0,0.0,43,0.00,,---,0.01,VWS V14.00,2013-09-06 02:22:00,
2013-09-05 20:27:00,79.7,54.6,29.88,WNW,282,0.0,0.0,42,0.00,,---,0.01,VWS V14.00,2013-09-06 02:27:00,
2013-09-05 20:32:00,79.7,54.6,29.88,WNW,282,0.0,0.0,42,0.00,,---,0.01,VWS V14.00,2013-09-06 02:32:00,
2013-09-05 20:37:00,79.7,54.6,29.88,West,281,0.0,0.0,42,0.00,,---,0.01,VWS V14.00,2013-09-06 02:37:00,
2013-09-05 20:42:00,79.6,55.8,29.88,West,281,0.0,1.0,44,0.00,,---,0.01,VWS V14.00,2013-09-06 02:42:00,
2013-09-05 20:47:00,79.4,54.3,29.88,West,280,2.0,3.0,42,0.00,,---,0.01,VWS V14.00,2013-09-06 02:47:00,
2013-09-05 20:52:00,79.4,54.3,29.88,West,280,0.0,0.0,42,0.00,,---,0.01,VWS V14.00,2013-09-06 02:52:00,
2013-09-05 20:57:00,79.3,54.9,29.88,West,281,0.0,0.0,43,0.00,,---,0.01,VWS V14.00,2013-09-06 02:57:00,
2013-09-05 21:02:00,79.3,55.5,29.87,West,281,0.0,0.0,44,0.00,,---,0.01,VWS V14.00,2013-09-06 03:02:00,
2013-09-05 21:07:00,79.2,54.8,29.87,West,281,0.0,0.0,43,0.00,,---,0.01,VWS V14.00,2013-09-06 03:07:00,
2013-09-05 21:12:00,79.1,55.3,29.87,West,280,0.0,0.0,44,0.00,,---,0.01,VWS V14.00,2013-09-06 03:12:00,
2013-09-05 21:17:00,79.0,55.2,29.87,West,281,0.0,0.0,44,0.00,,---,0.01,VWS V14.00,2013-09-06 03:17:00,
2013-09-05 21:22:00,78.8,55.7,29.87,West,281,0.0,0.0,45,0.00,,---,0.01,VWS V14.00,2013-09-06 03:22:00,
2013-09-05 21:27:00,78.7,55.6,29.86,West,281,0.0,0.0,45,0.00,,---,0.01,VWS V14.00,2013-09-06 03:27:00,
2013-09-05 21:32:00,78.7,55.6,29.87,West,281,0.0,0.0,45,0.00,,---,0.01,VWS V14.00,2013-09-06 03:32:00,
2013-09-05 21:38:00,78.3,55.8,29.88,West,281,0.0,0.0,46,0.00,,---,0.01,VWS V14.00,2013-09-06 03:38:00,
2013-09-05 21:43:00,78.1,55.7,29.88,West,281,0.0,0.0,46,0.00,,---,0.01,VWS V14.00,2013-09-06 03:43:00,
2013-09-05 21:48:00,77.9,55.5,29.88,West,281,0.0,0.0,46,0.00,,---,0.01,VWS V14.00,2013-09-06 03:48:00,
2013-09-05 21:53:00,77.5,55.7,29.88,West,280,0.0,0.0,47,0.00,,---,0.01,VWS V14.00,2013-09-06 03:53:00,
2013-09-05 21:58:00,77.3,56.1,29.88,West,281,0.0,0.0,48,0.00,,---,0.01,VWS V14.00,2013-09-06 03:58:00,
2013-09-05 22:01:00,77.0,56.4,29.88,West,281,0.0,0.0,49,0.00,,---,0.01,VWS V14.00,2013-09-06 04:01:00,
2013-09-05 22:02:00,76.9,56.3,29.86,West,281,0.0,0.0,49,0.00,,---,0.01,VWS V14.00,2013-09-06 04:02:00,
2013-09-05 22:04:00,76.8,55.7,29.86,West,280,0.0,0.0,48,0.00,,---,0.01,VWS V14.00,2013-09-06 04:04:00,
2013-09-05 22:06:00,76.7,56.1,29.86,West,280,0.0,0.0,49,0.00,,---,0.01,VWS V14.00,2013-09-06 04:06:00,
2013-09-05 22:11:00,76.4,55.8,29.86,West,281,0.0,0.0,49,0.00,,---,0.01,VWS V14.00,2013-09-06 04:11:00,
2013-09-05 22:16:00,76.1,56.1,29.87,West,280,0.0,0.0,50,0.00,,---,0.01,VWS V14.00,2013-09-06 04:16:00,
2013-09-05 22:20:00,75.8,56.4,29.87,West,280,0.0,0.0,51,0.00,,---,0.01,VWS V14.00,2013-09-06 04:20:00,
2013-09-05 22:25:00,75.3,55.9,29.87,West,281,0.0,0.0,51,0.00,,---,0.01,VWS V14.00,2013-09-06 04:25:00,
2013-09-05 22:30:00,75.1,55.8,29.86,West,281,0.0,0.0,51,0.00,,---,0.01,VWS V14.00,2013-09-06 04:30:00,
2013-09-05 22:35:00,74.9,55.6,29.87,West,280,0.0,0.0,51,0.00,,---,0.01,VWS V14.00,2013-09-06 04:35:00,
2013-09-05 22:40:00,74.8,56.0,29.86,West,281,0.0,0.0,52,0.00,,---,0.01,VWS V14.00,2013-09-06 04:40:00,
2013-09-05 22:45:00,74.6,55.8,29.86,West,281,0.0,0.0,52,0.00,,---,0.01,VWS V14.00,2013-09-06 04:45:00,
2013-09-05 22:50:00,74.5,55.7,29.86,West,280,0.0,0.0,52,0.00,,---,0.01,VWS V14.00,2013-09-06 04:50:00,
2013-09-05 22:55:00,74.3,55.6,29.88,West,280,0.0,0.0,52,0.00,,---,0.01,VWS V14.00,2013-09-06 04:55:00,
2013-09-05 23:00:00,74.1,55.9,29.87,West,281,0.0,0.0,53,0.00,,---,0.01,VWS V14.00,2013-09-06 05:00:00,
2013-09-05 23:05:00,73.6,55.4,29.84,West,281,0.0,0.0,53,0.00,,---,0.01,VWS V14.00,2013-09-06 05:05:00,
2013-09-05 23:10:00,73.5,55.3,29.84,West,281,0.0,1.0,53,0.00,,---,0.01,VWS V14.00,2013-09-06 05:10:00,
2013-09-05 23:15:00,73.5,55.3,29.84,West,280,0.0,0.0,53,0.00,,---,0.01,VWS V14.00,2013-09-06 05:15:00,
2013-09-05 23:21:00,73.4,55.2,29.85,West,281,0.0,0.0,53,0.00,,---,0.01,VWS V14.00,2013-09-06 05:21:00,
2013-09-05 23:26:00,73.4,55.2,29.85,West,281,0.0,0.0,53,0.00,,---,0.01,VWS V14.00,2013-09-06 05:26:00,
2013-09-05 23:31:00,73.3,55.7,29.84,West,281,0.0,0.0,54,0.00,,---,0.01,VWS V14.00,2013-09-06 05:31:00,
2013-09-05 23:36:00,73.1,55.5,29.85,West,280,0.0,0.0,54,0.00,,---,0.01,VWS V14.00,2013-09-06 05:36:00,
2013-09-05 23:41:00,73.0,55.4,29.85,West,281,0.0,0.0,54,0.00,,---,0.01,VWS V14.00,2013-09-06 05:41:00,
2013-09-05 23:46:00,72.8,54.7,29.84,West,281,0.0,0.0,53,0.00,,---,0.01,VWS V14.00,2013-09-06 05:46:00,
2013-09-05 23:51:00,72.6,54.5,29.85,West,281,0.0,0.0,53,0.00,,---,0.01,VWS V14.00,2013-09-06 05:51:00,
2013-09-05 23:56:00,72.3,54.2,29.85,West,280,0.0,0.0,53,0.00,,---,0.01,VWS V14.00,2013-09-06 05:56:00,